User: anonymous   Login
Location: Campillo
(40.8621°N, 4.2488°W)
Time: 23:36:46
(UTC+00:00)
Language:

Cosmos 1553 Rocket - Orbit

View from above orbital plane
View from above orbital plane
View from above satellite
View from above satellite

Ground track
Ground track

The orbit data is extracted from the following two-line orbital elements,

1 14974U 84046B   21204.29603573  .00000027  00000-0  11577-4 0  9995
2 14974  82.9360 108.4863 0046036 130.1418 349.7415 13.76946671867983
Epoch (UTC): 23 July 2021 07:06:17
Eccentricity: 0.0046036
inclination: 82.9360°
perigee height: 941 km
apogee height: 1008 km
right ascension of ascending node: 108.4863°
argument of perigee: 130.1418°
revolutions per day: 13.76946671
mean anomaly at epoch: 349.7415°
orbit number at epoch: 86798

The dashed part of the orbit path shows where the satellite is in the earth's shadow,  

DLR